Other Public Products
Issued by NWS Grand Forks, ND

Home | Current Version | Previous Version | Graphics & Text | Print | Product List | Glossary On
Versions: 1 2 3 4 5 6 7 8 9 10 11 12 13 14 15 16 17 18 19 20 21 22 23 24 25 26 27 28 29 30 31 32 33 34 35 36 37 38 39 40 41 42 43 44 45 46 47 48 49 50
000
FPUS83 KFGF 030510
OPUFGF
PRAIRIE TO PINES WEATHER ROUNDUP
NATIONAL WEATHER SERVICE EASTERN NORTH DAKOTA/GRAND FORKS ND
1200 AM CDT TUE MAY 03 2016

 **SATELLITE DATA USED TO AUGMENT SKY COVER AT AUTOMATED STATIONS**
 *****  WEATHER ACROSS EASTERN NORTH DAKOTA  *****

CITY           SKY/WX    TMP DP  RH WIND       PRES   REMARKS
GRAND FORKS    CLOUDY    53  38  56 W10       29.95S
GRAND FORKS AF CLOUDY    55  37  51 W12       29.96S
GRAND CITY NWS NOT AVBL
BUXTON         NOT AVBL
DEVILS LAKE    MOCLDY    52  39  61 SW9       29.99S
FARGO          CLOUDY    52  36  54 W9        29.97S
WAHPETON ARPT  CLEAR     50  34  53 NW7       29.98S
$$

 *****  WEATHER ACROSS CENTRAL AND WESTERN NORTH DAKOTA  *****

CITY           SKY/WX    TMP DP  RH WIND       PRES   REMARKS
JAMESTOWN      CLOUDY    43  36  76 CALM      30.00F
BISMARCK       PTCLDY    47  42  83 CALM      30.03R
MINOT          MOCLDY    58  36  43 SW7       29.98S
MINOT AFB      PTCLDY    50  36  59 SW8       29.97S
GARRISON         N/A     50  36  58 CALM      30.00S
WILLISTON      CLEAR     46  35  65 CALM      30.02R
DICKINSON      CLOUDY    44  32  62 S5        30.02S
HETTINGER      PTCLDY    37  31  78 W3        30.05S
$$

 *****  OTHER OBSERVATIONS NORTHEAST NORTH DAKOTA  *****

CITY           SKY/WX    TMP DP  RH WIND       PRES   REMARKS
WALHALLA       FAIR      57  36  44 W8        29.93F
LANGDON        FAIR      50  37  62 SW12      29.97S
CAVALIER       FAIR      57  37  47 W10       29.93S
GRAFTON        FAIR      57  41  54 W14       29.95F
CANDO          FAIR      48  34  57 SW8       30.00S
FORT TOTTEN      N/A     52  34  50 S5        29.95S
ROLLA          MOCLDY    50  36  57 SW8       29.98F
RUGBY          FAIR      50  37  62 S12       29.98S
 ***** THE ABOVE OBSERVATIONS ARE NON NWS ARE NOT QUALITY
        CONTROLLED AND MAY MIS-REPORT RAIN FOR SNOW...
$$

 *****  OTHER OBSERVATIONS SOUTHEAST NORTH DAKOTA *****

CITY           SKY/WX    TMP DP  RH WIND       PRES   REMARKS
COOPERSTOWN    NOT AVBL
VALLEY CITY    FAIR      48  39  71 W12       30.02S
OAKES            N/A    N/A N/A N/A MISG        N/A
GWINNER        FAIR      46  39  76 W8        30.00S
SHEYENNE NWR     N/A     50  36  59 NW6       29.95S
BUFFALO        NOT AVBL
WYNDMERE         N/A     52  37  58 NW3         N/A
 ***** THE ABOVE OBSERVATIONS ARE NON NWS ARE NOT QUALITY
       CONTROLLED AND MAY MIS-REPORT RAIN FOR SNOW...
$$

  *****  WEATHER ACROSS NORTHERN MINNESOTA  *****

CITY           SKY/WX    TMP DP  RH WIND       PRES   REMARKS
FLAG ISLAND    CLOUDY    55  30  38 W10       29.85F
WARROAD        CLOUDY    55  36  47 SW7       29.89F
ROSEAU         CLOUDY    54  37  54 SW7       29.90F
HALLOCK        CLOUDY    55  30  38 SW12      29.91F
THF RVR FALLS  CLOUDY    55  30  38 W10       29.95S
HALSTAD        NOT AVBL
FOSSTON        CLOUDY    48  34  57 W7        29.96S
BAUDETTE       CLOUDY    49  30  48 SW6       29.89F
WASKISH        CLOUDY    45  39  81 CALM      29.91F
CROOKSTON      CLOUDY    55  37  50 W12       29.96S
$$
  *****  WEATHER ACROSS CENTRAL AND WEST MINNESOTA  *****

CITY           SKY/WX    TMP DP  RH WIND       PRES   REMARKS
BEMIDJI        CLEAR     45  34  65 CALM      29.94S
PARK RAPIDS    CLEAR     48  30  49 W6        29.95S
WADENA         CLEAR     46  32  57 SW3       29.97S
DETROIT LAKES  CLEAR     54  36  50 NW7       29.99S
MOORHEAD       CLOUDY    55  37  50 W8        29.98S
FERGUS FALLS   CLEAR     54  36  50 N7        29.96S
ELBOW LAKE     FAIR      50  32  49 NW6       29.99S
MORRIS MN      CLEAR     50  34  53 CALM      29.98S
STAPLES        CLEAR     50  28  43 SW5       29.97S
WHEATON        CLEAR     55  39  54 CALM      30.00F
$$
  *****  WEATHER ELSEWHERE ACROSS MINNESOTA  *****

CITY           SKY/WX    TMP DP  RH WIND       PRES   REMARKS
DULUTH         PTCLDY    48  30  49 SW6       29.94F
INTRNTL FALLS  CLOUDY    38  33  82 SW3       29.88F
ELY            PTCLDY    48  32  53 SW3       29.91F
CLOQUET        CLEAR     43  32  65 CALM      29.95F
BRAINERD       CLEAR     49  32  52 SW3       29.97S
HIBBING        CLEAR     36  30  79 SW3       29.92F
ALEXANDRIA     CLEAR     47  32  56 SW7       29.99F
SAINT CLOUD    CLEAR     46  35  65 CALM      29.98F
MINNEAPOLIS    CLEAR     56  34  43 SW7       29.99F
$$

  *****  WEATHER ACROSS SOUTH DAKOTA  *****

CITY           SKY/WX    TMP DP  RH WIND       PRES   REMARKS
SIOUX FALLS    CLEAR     44  38  79 CALM      30.04S
BROOKINGS      CLEAR     46  39  76 SW7       30.02F
WATERTOWN      CLEAR     47  39  74 CALM      30.01S
HURON          CLEAR     48  43  82 SE3       30.02S
SISSETON         N/A     47  36  65 CALM      29.99S
ABERDEEN       CLEAR     42  35  76 CALM      30.01F
MITCHELL       PTCLDY    47  45  93 SE3       30.04R
PIERRE         CLEAR     41  38  89 W7        30.02S
MOBRIDGE       CLEAR     47  44  90 CALM      29.99S
RAPID CITY     CLEAR     42  36  79 NW10      30.05S
$$

  *****  SOME WEATHER IN NEARBY STATES *****

CITY           SKY/WX    TMP DP  RH WIND       PRES   REMARKS
GLASGOW MT     CLEAR     52  40  63 CALM      30.03S
GREAT FALLS MT CLEAR     55  33  43 SE6       30.11R
CHEYENNE WY    CLEAR     46  25  43 NW14G23   30.15S
SCOTTSBLUFF NE LGT RAIN  48  39  71 N12       30.08R
OMAHA NE       PTCLDY    47  42  83 CALM      30.05S
DES MOINES IA  CLEAR     48  40  73 CALM      30.05S
DAVENPORT IA   PTCLDY    46  41  82 CALM      30.03S
CHICAGO IL     CLEAR     44  35  70 NW3       29.99F
EAU CLAIRE WI  CLEAR     44  36  73 CALM      29.98F
LA CROSSE WI   CLEAR     50  41  71 S5        30.00S
$$

  *****  SOME NATIONAL WEATHER *****

CITY           SKY/WX    TMP DP  RH WIND       PRES   REMARKS
LA GUARDIA NY  LGT RAIN  55  51  86 E6        29.91F
RALEIGH NC     CLOUDY    66  64  94 SW9       29.89F
ATLANTA GA     CLOUDY    67  61  81 S3        29.93S
NEW ORLEANS LA PTCLDY    71  68  90 CALM      29.95F
OKLAHOMA CITY  CLEAR     50  43  77 CALM      30.11F
ALBUQUERQUE NM CLOUDY    57  35  43 W9        30.18S
SALT LAKE CITY CLEAR     56  37  49 CALM      30.18R
LOS ANGELES CA CLEAR     59  53  80 S7        29.98R
BOISE ID       CLEAR     61  29  29 SE6       30.10R
SEATTLE WA     PTCLDY    71  38  29 SE8       29.97R
$$

*** WEATHER ACROSS MANITOBA...SASKATCHEWAN AND ONTARIO ***
                ***ONTARIO***

CITY           SKY/WX    TMP DP  RH WIND       PRES   REMARKS
GERALDTON      CLOUDY    50  32  50 SW8       29.82F
THUNDER BAY    CLOUDY    41  34  75 CALM      29.87F
SIOUX LOOKOUT  CLOUDY    55  28  35 SW6       29.79F
TORONTO        MOCLDY    43  36  75 W2        29.96S
BIG TROUT LK   PTCLDY    45  41  87 W8        29.59S
PICKLE LAKE    NOT AVBL
DRYDEN         CLOUDY    54  27  35 W8        29.82F
KENORA         MOCLDY    52  28  40 SW7       29.84F
$$
                *** MANITOBA***

CITY           SKY/WX    TMP DP  RH WIND       PRES   REMARKS
BRANDON        PTCLDY    48  37  66 W10       29.93F
DAUPHIN        CLEAR     54  36  50 SW12      29.87F
ISLAND LAKE    PTCLDY    45  30  57 NW13      29.75R
PILOT MOUND      N/A     48  34  57 SW8         N/A
THE PAS        CLOUDY    48  30  49 N6        29.96R
THOMPSON       CLEAR     41  30  65 N17G26    29.92R
WINNIPEG       PTCLDY    55  36  47 W9        29.87F
LYNN LAKE      CLEAR     41  32  70 N10       30.01R
CHURCHILL      CLOUDY    32  30  93 N23G30    29.85R WCI  19
GILLAM         CLOUDY    37  30  75 N22       29.83R
$$
                ***SASKATCHEWAN***

CITY           SKY/WX    TMP DP  RH WIND       PRES   REMARKS
ESTEVAN        PTCLDY    46  34  61 W5        30.00R
KINDERSLEY     PTCLDY    61  43  51 NE3       30.02R
LLOYDMINSTER   CLEAR     61  37  41 SW6       30.00S
PRINCE ALBERT  PTCLDY    50  36  57 CALM      29.98R
REGINA         CLEAR     52  28  40 S5        30.01S
YORKTON        CLEAR     59  37  44 SW10      29.93S  C1F1C2F2C3F3C4F4C5F5C6F6C7F7C8F8C9F9CaFaCbFbCcFcCdFdCe!



USA.gov is the U.S. government's official web portal to all federal, state and local government web resources and services.